User: anonymous   Login
Location: Unspecified
(0.0000°N, 0.0000°E)
Time: 02:03:19
(UTC+00:00)
Language:

TBA - TO BE ASSIGNED - Orbit

View from above orbital plane
View from above orbital plane
View from above satellite
View from above satellite

Ground track
Ground track

The orbit is defined by the following mean orbital elements,

1 68115U          26145.61799117 +.00000000 +00000-0 +89948-3 0 00004
2 68115  97.2846 106.2582 0001649  98.2734 261.8696 15.33446858    01
Epoch (UTC): 25 May 2026 14:49:54
Eccentricity: 0.0001649
inclination: 97.2846°
perigee height: 464 km
apogee height: 467 km
right ascension of ascending node: 106.2582°
argument of perigee: 98.2734°
revolutions per day: 15.33446858
mean anomaly at epoch: 261.8696°

The dashed part of the orbit path shows where the satellite is in the earth's shadow,  

DLR